Regional Weather Roundup
Issued by NWS

Home | Current Version | Previous Version | Graphics & Text | Print | Product List | Glossary Off
Versions: 1 2 3 4 5 6 7 8 9 10 11 12 13 14 15 16 17 18 19 20 21 22 23 24 25 26 27 28 29 30 31 32 33 34 35 36 37 38 39 40 41 42 43 44 45 46 47 48 49 50

000
ASUS43 KDMX 171407
RWRIA

WEATHER ROUNDUP FOR IOWA
NATIONAL WEATHER SERVICE DES MOINES IA
900 AM CDT WED SEP 17 2014

NOTE: "FAIR" INDICATES FEW OR NO CLOUDS BELOW 12,000 FEET WITH NO
SIGNIFICANT WEATHER AND/OR OBSTRUCTIONS TO VISIBILITY.

* - THESE STATIONS ARE NOT NWS STATIONS...THUS NOT UNDER NWS
QUALITY CONTROL.  THEY ALSO DO NOT REPORT WEATHER SUCH
AS PRECIPITATION OR FOG.

IAZ001>003-012>014-020>022-031>034-043>046-171500-
   NORTHWEST IOWA

CITY           SKY/WX    TMP DP  RH WIND       PRES   REMARKS
CARROLL *      SUNNY     57  54  88 SE5       29.95S
CHEROKEE *     SUNNY     55  54  94 CALM      29.94S
DENISON *      SUNNY     59  55  88 CALM      29.93S
LE MARS *      SUNNY     57  54  88 CALM      29.94S
ORANGE CITY *  SUNNY     57  52  82 S3        29.94R
SHELDON *      SUNNY     55  54  94 SE5       29.93S
SIOUX CITY     SUNNY     60  54  80 SE3       29.94R
SPENCER        MOSUNNY   54  49  83 SE3       29.95S
STORM LAKE *   SUNNY     59  57  94 CALM      29.94S
$$

IAZ055>058-069>071-079>083-090>094-171500-
   SOUTHWEST IOWA

CITY           SKY/WX    TMP DP  RH WIND       PRES   REMARKS
ATLANTIC *     SUNNY     59  55  88 CALM      29.95R
AUDUBON *      SUNNY     57  52  82 CALM      29.96S
CLARINDA *     CLOUDY    63  57  82 CALM      29.96S
COUNCIL BLFS * SUNNY     61  59  94 SE7       29.93S
CRESTON *      MOSUNNY   61  57  88 SE7       29.96S
HARLAN  *      SUNNY     59  55  88 CALM      29.98S
LAMONI         CLOUDY    59  57  93 SE5       29.96S
SHENANDOAH *   CLOUDY    63  59  88 SE6       29.95S
$$

IAZ047>049-059>061-072>074-084-171500-
   CENTRAL IOWA

CITY           SKY/WX    TMP DP  RH WIND       PRES   REMARKS
AMES           CLOUDY    55  52  89 SE5       29.96F
ANKENY *       CLOUDY    57  54  88 SE3       29.97S
CHARITON *     CLOUDY    59  55  88 VRB5      29.96F
DES MOINES     CLOUDY    60  52  74 SE5       29.96S
GRINNELL*      CLOUDY    55  52  88 E5        29.99R
KNOXVILLE *    CLOUDY    55  54  94 VRB5      29.96S
MARSHALLTOWN   CLOUDY    53  50  89 SE6       29.97F
PELLA *        PTSUNNY   55  54  94 SE3       29.99R
PERRY *          N/A     57  54  88 SE3       29.96S
$$

IAZ004>006-015-016-023>025-035-036-171500-
   NORTH CENTRAL IOWA

CITY           SKY/WX    TMP DP  RH WIND       PRES   REMARKS
ALGONA *       SUNNY     55  50  82 S8        29.97R
CLARION *        N/A     57  52  82 S3        29.97S
ESTHERVILLE    MOSUNNY   50  48  93 S6        29.95F
FORT DODGE *   CLOUDY    54  48  82 SE3       29.97R
MASON CITY     SUNNY     54  50  86 S5        29.99F
FOREST CITY *  SUNNY     55  52  88 SE5       29.97S
IOWA FALLS *     N/A     55  50  82 SE3       29.99S
$$

IAZ007>011-017>019-026>030-037>042-050>054-066-171500-
   NORTHEAST IOWA

CITY           SKY/WX    TMP DP  RH WIND       PRES   REMARKS
CEDAR RAPIDS   CLOUDY    51  50  96 SE5       29.99S
CHARLES CITY * MOSUNNY   54  50  87 SE6       29.99F
CLINTON *      SUNNY     52  48  87 CALM      30.05S
DECORAH *      CLOUDY    52  48  87 S5        29.99F
DUBUQUE        CLOUDY    53  48  83 CALM      30.01F
MONTICELLO *   SUNNY     54  50  87 CALM      30.01S
OELWEIN *      PTSUNNY   55  50  82 S6        30.01S
WATERLOO       SUNNY     54  49  83 SE5       29.98F
$$

IAZ064-065-067-068-078-171500-
   EAST CENTRAL IOWA

CITY           SKY/WX    TMP DP  RH WIND       PRES   REMARKS
DAVENPORT      SUNNY     56  51  84 S5        30.02S
IOWA CITY      CLOUDY    52  50  93 SE3       30.02R
MT. PLEASANT * CLOUDY    55  54  94 SE3       30.00S FOG
MUSCATINE *    CLOUDY    54  50  87 CALM      30.02R
QUAD CITIES    SUNNY     55  51  86 CALM      30.01F
$$

IAZ062-063-075>077-085>089-095>099-171500-
   SOUTHEAST IOWA

CITY           SKY/WX    TMP DP  RH WIND       PRES   REMARKS
BURLINGTON     CLOUDY    56  54  93 S5        30.01S
FAIRFIELD *    CLOUDY    55  52  88 SE6       30.00R
FORT MADISON * CLOUDY    57  54  88 S6        30.02R
KEOKUK *       CLOUDY    55  54  94 SE6       30.00S
OSKALOOSA *    CLOUDY    55  54  94 SE6       29.99S
CENTERVILLE *  MOSUNNY   57  57 100 SE3       29.99S
OTTUMWA        CLOUDY    56  53  90 SE6       29.98R
WASHINGTON *   CLOUDY    55  55 100 SE6       30.00S
$$

ABBREVIATIONS USED IN REMARKS
   TC - TEMPERATURES IN CELSIUS
  WCI - WIND CHILL INDEX
   HX - HEAT INDEX
  VSB - VISIBILITY
$$




USA.gov is the U.S. government's official web portal to all federal, state and local government web resources and services.